Weather History for GMTN - September, 2012

Change the Weather History Date:

Saturday, September 22, 2012

  Actual Average Record
Temperature  
Mean Temperature 72 °F -  
Max Temperature 78 °F 74 °F - (-1)
Min Temperature 66 °F 62 °F - (-1)
Cooling Degree Days 7    
Growing Degree Days 22 (Base 50)    
Moisture  
Dew Point 67 °F    
Average Humidity 86    
Maximum Humidity 100    
Minimum Humidity 65    
Precipitation  
Precipitation 0.00 in - - ()
Sea Level Pressure  
Sea Level Pressure 29.97 in    
Wind  
Wind Speed 4 mph ()    
Max Wind Speed 10 mph    
Max Gust Speed -    
Visibility 2.7 miles    
Events      
Averages and records for this station are not official NWS values.
T = Trace of Precipitation, MM = Missing Value Source: Averaged Metar Reports

Daily Weather History Graph

Daily Weather History Graph

Search for Another Location

Airport or City:

Trip Planner

Search our weather history database for the weather conditions in past years. The results will help you decide how hot, cold, wet, or windy it might be!

Date:

Astronomy

Sep. 22, 2012 Rise Set
Actual Time 7:09 AM WEST 7:17 PM WEST
Civil Twilight 6:44 AM WEST 7:43 PM WEST
Nautical Twilight 6:14 AM WEST 8:12 PM WEST
Astronomical Twilight 5:44 AM WEST 8:42 PM WEST
Moon 2:02 PM WEST No Moon Set
Length of Visible Light 12h 59m
Length of Day
12h 08m
Waxing Crescent, 46% of the Moon is Illuminated
Sep 22
Waxing Crescent
Sep 22
First Quarter
Sep 30
Full
Oct 8
Last Quarter
Oct 15
New

Hourly Weather History & Observations

Time (WEST) Temp. Dew Point Humidity Pressure Visibility Wind Dir Wind Speed Gust Speed Precip Events Conditions
1:00 AM 67 °F 65 °F 91% 29.99 in - East 2.3 mph - -  
1:00 AM 68.0 °F 64.4 °F 88% 29.98 in 1.6 mi East 2.3 mph - N/A   Unknown
2:00 AM 68.0 °F 66.2 °F 94% 29.98 in 1.9 mi Variable 1.2 mph - N/A   Unknown
3:00 AM 68.0 °F 68.0 °F 100% 29.98 in 0.4 mi NNW 3.5 mph - N/A   Unknown
4:00 AM 69 °F 67 °F 93% 29.96 in 1 mi NW 3.5 mph - -  
4:00 AM 68.0 °F 68.0 °F 100% 29.95 in 0.6 mi NW 3.5 mph - N/A   Unknown
5:00 AM 69.8 °F 68.0 °F 94% 29.95 in 1.4 mi NW 3.5 mph - N/A   Unknown
6:00 AM 69.8 °F 68.0 °F 94% 29.95 in 1.1 mi WNW 3.5 mph - N/A   Unknown
7:00 AM 69 °F 67 °F 92% 29.97 in 2 mi NNW 3.5 mph - -   Mist
7:00 AM 69.8 °F 68.0 °F 94% 29.95 in 1.9 mi NNW 3.5 mph - N/A   Overcast
8:00 AM 69.8 °F 68.0 °F 94% 29.98 in 1.9 mi Calm Calm - N/A   Overcast
9:00 AM 69.8 °F 68.0 °F 94% 29.98 in 1.9 mi NNE 3.5 mph - N/A   Overcast
10:00 AM 71 °F 68 °F 88% 30.00 in 2 mi East 3.5 mph - -   Mist
10:00 AM 71.6 °F 68.0 °F 88% 29.98 in 2.5 mi East 3.5 mph - N/A   Overcast
11:00 AM 71.6 °F 68.0 °F 88% 30.01 in 3.1 mi ENE 3.5 mph - N/A   Mostly Cloudy
12:00 PM 73.4 °F 68.0 °F 83% 29.98 in 3.1 mi East 5.8 mph - N/A   Mostly Cloudy
1:00 PM 76 °F 67 °F 66% 29.99 in 4 mi ENE 6.9 mph - -  
1:00 PM 77.0 °F 66.2 °F 69% 29.98 in 3.7 mi ENE 6.9 mph - N/A   Mostly Cloudy
2:00 PM 75.2 °F 66.2 °F 73% 29.95 in 3.7 mi East 9.2 mph - N/A   Mostly Cloudy
3:00 PM 77.0 °F 66.2 °F 69% 29.95 in 3.7 mi East 10.4 mph - N/A   Partly Cloudy
4:00 PM 76 °F 67 °F 65% 29.96 in 4 mi ENE 9.2 mph - -   Scattered Clouds
4:00 PM 75.2 °F 66.2 °F 73% 29.95 in 3.7 mi ENE 9.2 mph - N/A   Partly Cloudy
5:00 PM 75.2 °F 68.0 °F 78% 29.95 in 4.3 mi East 8.1 mph - N/A   Unknown
6:00 PM 73.4 °F 66.2 °F 78% 29.95 in 4.3 mi East 9.2 mph - N/A   Unknown
7:00 PM 72 °F 67 °F 78% 29.96 in 4 mi ENE 4.6 mph - -  
7:00 PM 71.6 °F 66.2 °F 83% 29.95 in 4.3 mi ENE 4.6 mph - N/A   Unknown
8:00 PM 69.8 °F 66.2 °F 88% 29.95 in 4.3 mi East 3.5 mph - N/A   Unknown
9:00 PM 68.0 °F 66.2 °F 94% 29.95 in 3.7 mi ENE 3.5 mph - N/A   Unknown
10:00 PM 68 °F 65 °F 87% 29.97 in 2 mi North 3.5 mph - -  
10:00 PM 68.0 °F 64.4 °F 88% 29.95 in 1.9 mi North 3.5 mph - N/A   Unknown
11:00 PM 68.0 °F 66.2 °F 94% 29.95 in 1.6 mi Calm Calm - N/A   Unknown